User: anonymous   Login
Location: Finkenwalde
(53.3770°N, 14.6418°E)
Time: 04:26:51
(UTC+00:00)
Language:

Cosmos 676 Rocket - Orbit

View from above orbital plane
View from above orbital plane
View from above satellite
View from above satellite

Ground track
Ground track

The orbit data is extracted from the following two-line orbital elements,

1  7434U 74071B   24206.79583277  .00000663  00000-0  22964-3 0  9990
2  7434  74.0465 127.4739 0019566 119.2874 241.0238 14.37502383609368
Epoch (UTC): 24 July 2024 19:05:59
Eccentricity: 0.0019566
inclination: 74.0465°
perigee height: 753 km
apogee height: 781 km
right ascension of ascending node: 127.4739°
argument of perigee: 119.2874°
revolutions per day: 14.37502383
mean anomaly at epoch: 241.0238°
orbit number at epoch: 60936

The dashed part of the orbit path shows where the satellite is in the earth's shadow,  

DLR